Temperature
13 14 14 14 14 14 14 15 16 18 18 17 16 15 15 16 15 14 13 12 10 9 8 8 7 7 7 7 6 6 6 5 5 4 4 3 3 2 2 1 1 1 1 -0
14 15 15 15 14 15 15 15 16 16 18 19 17 17 16 15 15 14 13 11 10 9 8 7 7 7 6 6 5 5 5 5 4 3 3 2 2 1 1 1 1 0 -0 -1
14 15 15 14 15 15 15 15 16 15 16 18 16 16 15 15 15 14 13 11 10 9 8 7 7 6 5 5 5 4 4 4 3 3 2 2 1 1 0 0 -0 -1 -1 -2
13 14 12 16 17 16 16 16 16 16 17 17 15 14 15 16 15 14 13 11 10 9 8 7 6 5 5 4 4 4 4 3 3 2 1 1 0 0 -0 -0 -1 -1 -2 -3
12 13 14 16 15 16 16 15 16 16 16 13 13 12 11 13 13 13 12 11 10 9 8 6 5 5 4 4 3 3 3 2 2 1 1 0 0 -0 -1 -1 -2 -2 -3 -4
11 12 13 14 14 15 16 15 16 16 15 12 12 10 9 10 11 11 10 10 9 8 7 6 5 4 3 3 3 3 2 1 1 0 -0 -0 -0 -1 -1 -2 -2 -3 -3 -4
11 11 13 13 14 14 14 13 13 15 14 12 11 11 9 9 9 9 9 8 8 7 6 5 4 3 3 3 2 2 1 1 0 -0 -0 -1 -1 -1 -2 -3 -3 -3 -4 -5
10 11 12 13 13 13 12 12 13 13 12 9 8 8 7 8 8 8 8 7 6 6 5 4 3 3 3 2 2 1 0 0 -0 -0 -1 -1 -2 -2 -3 -3 -4 -5 -5 -6
11 11 12 13 12 11 12 12 12 10 10 9 7 7 7 7 7 7 7 6 6 5 4 3 2 2 2 1 1 0 -0 -0 -0 -1 -1 -2 -3 -3 -3 -4 -5 -6 -7 -7
12 11 11 11 11 11 12 11 10 10 9 9 8 7 7 7 7 6 6 6 5 4 3 3 2 1 1 0 -0 -0 -0 -0 -1 -1 -2 -2 -3 -3 -4 -5 -6 -7 -7 -8
12 10 9 10 10 11 10 10 9 9 9 9 8 7 7 7 6 6 5 4 4 3 2 2 1 1 0 -0 -0 -0 -1 -1 -2 -2 -2 -3 -3 -4 -5 -6 -7 -8 -8 -8
11 10 9 9 9 9 9 9 9 8 8 8 8 7 7 6 6 5 4 4 3 2 1 1 0 -0 -0 -0 -1 -1 -1 -2 -2 -3 -3 -3 -4 -5 -5 -7 -8 -8 -8 -9
12 12 11 9 8 8 8 8 8 9 8 7 7 7 7 6 5 4 3 3 2 1 1 0 -0 -0 -1 -1 -1 -2 -2 -2 -3 -3 -4 -5 -5 -6 -7 -7 -8 -9 -9 -9
10 10 8 8 7 7 8 8 8 8 7 7 7 6 6 5 4 3 2 2 1 0 -0 -0 -1 -1 -1 -1 -2 -2 -2 -3 -3 -4 -5 -5 -6 -7 -8 -9 -9 -9 -9 -10
9 9 8 7 6 7 8 8 7 7 7 6 6 6 5 4 3 2 1 1 0 -0 -1 -1 -1 -1 -2 -2 -2 -3 -3 -4 -4 -5 -6 -6 -7 -8 -9 -9 -10 -10 -10 -10
7 7 7 6 6 6 7 7 7 6 6 6 5 5 4 3 2 1 0 -0 -1 -1 -1 -2 -2 -2 -2 -3 -3 -3 -4 -5 -5 -6 -7 -8 -9 -9 -9 -10 -10 -10 -10 -11
7 4 4 5 5 6 6 7 7 6 5 5 4 4 3 2 1 0 -0 -1 -1 -2 -2 -2 -2 -3 -3 -3 -4 -4 -5 -5 -6 -7 -8 -8 -9 -10 -10 -10 -10 -11 -11 -11
9 9 8 7 6 5 5 6 5 5 5 4 3 3 2 1 1 -0 -1 -2 -2 -2 -3 -3 -3 -3 -4 -4 -4 -5 -6 -6 -7 -8 -9 -9 -10 -10 -10 -10 -11 -11 -11 -11
7 6 5 5 6 6 5 5 5 4 4 3 3 2 1 0 -0 -1 -2 -2 -3 -3 -3 -3 -4 -4 -4 -5 -5 -6 -6 -7 -7 -9 -9 -10 -10 -10 -10 -11 -11 -11 -11 -12
5 5 5 5 5 5 5 4 4 4 3 3 2 1 1 -0 -1 -2 -3 -3 -3 -3 -4 -4 -4 -5 -5 -6 -6 -6 -7 -8 -9 -9 -10 -10 -10 -11 -11 -11 -11 -11 -12 -12
4 5 5 5 4 4 4 4 3 3 2 2 1 0 -0 -1 -2 -3 -3 -3 -4 -4 -5 -5 -5 -6 -6 -6 -7 -7 -8 -8 -9 -9 -10 -10 -11 -11 -11 -11 -11 -12 -12 -13
5 5 5 5 4 3 3 3 2 2 1 1 -0 -1 -1 -2 -3 -3 -4 -4 -4 -5 -5 -6 -6 -6 -7 -7 -7 -8 -8 -9 -10 -10 -10 -11 -11 -11 -11 -11 -12 -13 -13 -13
5 5 4 4 3 3 2 2 1 1 0 -0 -1 -2 -2 -3 -3 -4 -4 -5 -5 -6 -6 -6 -6 -7 -7 -7 -8 -8 -9 -10 -10 -10 -11 -11 -11 -12 -12 -12 -13 -13 -13 -13
4 4 3 3 2 2 1 0 0 -0 -1 -1 -2 -3 -3 -4 -4 -5 -5 -6 -6 -6 -6 -7 -7 -7 -8 -8 -9 -9 -10 -10 -10 -11 -11 -11 -12 -12 -12 -12 -12 -12 -13 -12
3 3 2 2 1 1 0 -0 -1 -1 -2 -2 -3 -4 -4 -5 -5 -6 -6 -6 -6 -7 -7 -7 -8 -8 -9 -9 -9 -10 -10 -10 -11 -12 -12 -12 -12 -12 -12 -12 -13 -13 -12 -12
3 2 1 1 0 -0 -1 -1 -1 -2 -3 -3 -4 -5 -5 -6 -6 -6 -6 -7 -7 -7 -8 -8 -8 -9 -9 -10 -10 -10 -10 -11 -11 -11 -11 -12 -12 -12 -12 -12 -12 -12 -12 -12
2 1 0 -0 -1 -1 -1 -2 -2 -3 -4 -5 -5 -6 -6 -6 -7 -7 -7 -7 -8 -8 -8 -9 -9 -10 -10 -10 -10 -11 -11 -11 -11 -11 -12 -12 -12 -12 -12 -12 -12 -12 -12 -12
Wind_Speed
6 8 13 11 13 12 11 8 4 3 5 10 11 11 11 11 13 14 15 15 14 13 11 11 10 10 9 9 9 8 8 7 6 4 3 3 4 5 6 6 8 8 8 8
0 3 10 12 15 15 14 12 10 8 4 4 8 10 11 12 12 13 14 13 13 13 12 12 11 10 10 9 8 8 8 7 5 2 2 3 4 5 6 7 8 8 8 9
1 5 4 6 13 15 14 13 12 12 9 1 6 9 11 12 11 11 12 12 12 12 11 11 11 10 10 9 8 8 7 6 4 2 2 3 5 6 7 7 7 8 9 9
1 4 4 4 6 11 13 12 12 9 6 3 7 8 8 6 10 10 11 12 11 11 11 11 10 10 10 9 8 7 6 5 3 1 2 4 5 7 7 7 8 8 9 10
0 3 5 4 1 4 9 9 10 11 7 9 13 9 8 9 9 10 10 10 10 11 12 11 11 11 11 9 8 7 5 4 3 2 3 5 6 7 7 7 8 9 9 10
1 1 2 2 3 5 2 4 3 7 10 14 11 6 5 6 11 12 11 11 12 12 13 12 11 11 10 8 7 6 5 3 2 2 4 6 7 7 6 7 8 9 10 10
2 2 4 2 2 2 4 2 6 3 9 12 6 7 12 12 12 11 11 12 12 12 11 10 10 10 9 8 7 6 4 2 1 3 4 6 5 6 7 8 9 9 10 9
5 4 6 2 1 2 2 1 5 8 13 14 15 16 15 13 12 11 11 11 11 11 10 9 9 9 9 8 7 5 3 1 3 4 4 5 6 7 7 8 8 9 9 9
8 6 2 3 4 3 2 6 8 10 14 17 16 14 13 11 10 10 10 9 10 11 10 8 7 8 9 7 6 4 1 2 3 5 5 5 6 7 7 7 7 7 8 9
5 4 5 4 4 3 7 10 11 12 12 14 15 13 12 11 9 9 9 9 9 10 9 8 7 8 8 7 5 2 1 3 4 5 6 6 5 6 6 6 7 7 8 10
4 6 6 4 4 8 12 13 13 12 12 12 14 12 11 10 9 8 7 7 8 8 9 8 8 7 7 6 4 2 3 4 5 5 5 6 6 6 8 7 10 12 8 8
6 9 7 7 8 11 13 12 13 15 13 10 11 11 10 8 8 8 8 7 8 9 9 8 8 7 6 5 4 3 3 4 4 4 5 6 7 8 12 14 19 21 20 19
5 7 8 11 11 11 12 12 12 13 12 11 9 10 10 8 7 8 8 8 8 8 8 8 7 6 6 5 3 2 3 4 4 5 5 6 7 9 11 12 16 18 20 22
12 13 10 8 9 11 13 14 14 13 11 10 10 10 10 9 8 9 8 8 8 9 8 7 7 6 5 4 2 2 4 6 6 5 5 6 7 8 8 10 11 9 14 21
6 7 10 12 12 12 11 13 14 12 11 10 9 9 9 9 9 8 8 8 8 8 7 7 6 4 5 3 2 3 4 4 5 5 5 6 7 8 7 9 10 11 10 13
10 12 14 14 12 11 11 12 13 11 10 10 9 9 9 9 9 8 8 7 7 7 6 6 4 4 5 3 2 3 4 9 9 6 5 6 6 7 8 8 9 10 11 11
13 12 11 13 11 10 9 10 11 10 9 9 9 9 9 9 9 8 7 6 7 7 6 5 4 4 3 2 3 3 4 7 12 8 5 6 7 7 8 8 9 9 9 14
9 10 13 16 14 13 12 12 11 10 10 9 9 8 8 7 7 7 7 7 7 6 5 5 5 4 3 3 3 3 4 5 5 6 6 6 8 7 8 8 9 11 10 13
14 15 13 12 13 14 13 12 10 9 9 9 8 8 7 6 7 7 7 6 5 4 4 5 5 3 3 4 5 3 5 6 6 6 6 11 11 7 8 8 9 9 11 12
16 17 17 15 13 14 13 11 10 9 8 8 8 8 7 7 7 7 7 5 5 5 5 5 4 4 4 5 7 4 6 6 6 6 6 7 7 8 8 9 10 11 12 12
18 17 17 16 14 12 11 10 10 9 8 8 8 8 8 7 7 6 6 5 4 6 5 4 3 3 3 6 9 6 6 6 6 6 7 7 8 8 8 10 12 13 12 12
14 15 15 14 14 12 9 9 9 9 9 8 8 8 8 8 7 7 7 5 5 6 4 3 2 5 8 9 5 6 6 6 6 6 6 7 7 8 9 10 11 12 12 12
13 13 13 12 13 11 10 9 9 9 9 8 8 8 8 7 5 5 5 4 4 6 4 3 6 10 12 7 5 6 6 7 7 7 6 6 7 8 10 11 11 11 11 11
13 12 12 11 12 12 10 8 9 9 9 9 8 8 8 7 6 6 5 5 5 5 4 6 10 11 11 5 5 6 6 6 7 7 7 7 8 9 10 11 11 11 11 12
12 12 11 11 10 8 9 9 9 9 9 9 9 9 7 6 5 4 4 4 6 6 4 7 11 12 7 5 6 6 6 7 9 9 6 7 8 9 10 10 10 10 11 11
10 10 8 8 8 8 7 7 7 7 7 8 7 6 5 5 5 4 3 4 5 7 5 4 6 8 6 6 6 7 7 8 9 8 7 9 10 10 10 10 11 11 11 11
11 9 9 8 7 6 6 7 8 7 6 7 6 4 4 4 4 4 4 4 4 4 4 5 5 5 6 6 7 7 6 6 7 7 8 8 8 9 10 11 10 10 10 11
Wind_Direction
252 173 162 172 190 205 218 230 235 213 158 165 163 157 155 150 149 152 160 162 160 159 159 155 149 145 137 128 124 124 115 105 92 73 55 18 355 336 320 311 307 299 297 298
233 143 165 179 193 205 215 222 240 266 271 126 132 131 140 151 158 163 167 163 158 158 156 153 148 142 132 128 127 123 116 111 104 69 23 0 336 314 303 298 295 298 300 302
155 136 131 208 205 208 217 219 221 231 237 154 124 134 149 157 161 163 160 157 158 158 153 147 141 136 133 126 122 116 113 112 109 61 359 338 319 308 302 301 304 308 306 307
93 137 207 242 194 202 217 224 219 227 228 193 137 101 71 105 141 143 145 148 148 143 137 132 127 125 119 118 118 118 122 128 123 57 336 322 309 303 305 309 310 308 307 304
150 223 244 219 185 196 205 232 214 215 201 122 110 81 42 34 80 103 112 122 125 125 123 121 121 119 117 119 123 128 128 118 89 25 330 311 304 306 310 312 311 306 302 303
344 281 269 64 19 344 131 241 255 201 168 144 129 133 152 96 79 81 86 99 109 113 115 115 117 121 124 130 133 129 116 97 52 327 301 297 301 309 312 313 305 304 305 304
210 260 290 75 344 347 147 226 335 12 137 140 116 115 119 104 89 88 91 98 105 110 114 119 124 127 127 125 119 110 102 83 310 296 296 298 304 305 302 298 298 303 306 309
183 220 248 144 117 65 138 2 28 68 99 101 101 102 102 101 101 102 103 105 110 113 114 117 123 122 118 114 111 110 116 267 289 297 303 306 300 295 295 299 304 308 313 314
189 201 132 79 86 82 109 97 79 89 105 113 111 111 112 111 112 113 115 115 116 119 117 111 107 112 115 114 113 114 114 305 311 315 306 300 299 300 303 303 305 310 314 316
163 160 146 110 99 98 101 99 95 105 109 113 115 118 118 120 120 121 123 124 125 124 122 114 102 96 108 114 115 113 358 329 322 313 306 307 306 303 304 307 309 308 309 311
161 130 128 146 131 111 101 98 95 92 98 110 115 117 121 125 129 131 130 126 128 130 128 125 119 112 112 116 108 59 360 334 320 314 316 314 308 303 310 301 304 313 306 304
197 175 164 163 142 122 115 112 110 106 97 93 106 113 115 118 124 128 128 124 120 119 123 126 128 125 120 109 83 37 346 325 319 321 319 314 311 312 313 315 318 321 321 318
105 111 110 120 121 118 118 116 111 107 108 101 93 97 103 104 107 113 116 119 121 124 126 126 124 121 118 106 78 13 322 313 313 316 312 311 314 315 316 319 319 320 322 323
103 99 101 116 116 111 109 107 103 97 94 94 94 91 94 96 98 103 110 116 118 119 120 120 116 114 111 98 69 331 315 313 312 302 310 316 313 309 309 315 319 317 321 323
83 99 125 116 107 106 108 111 106 101 98 91 89 92 98 102 102 102 104 108 111 112 112 111 110 110 104 90 28 328 318 307 303 306 307 302 301 303 306 310 313 315 316 321
92 92 106 114 118 122 122 117 113 112 108 104 96 93 93 98 101 103 107 113 118 122 122 117 112 103 96 69 359 330 318 315 316 305 296 296 300 306 309 310 311 312 315 318
129 130 131 133 134 134 123 112 114 116 113 110 108 104 103 105 107 110 109 101 102 108 111 112 106 97 81 32 350 330 319 315 315 313 302 301 303 303 304 306 307 309 311 316
137 141 149 146 139 122 106 102 105 106 110 113 113 111 114 120 127 131 123 107 99 99 101 100 90 67 27 356 357 335 314 301 300 299 299 300 305 304 306 306 307 310 313 317
128 130 128 119 116 115 112 110 106 105 108 114 115 113 110 107 111 120 119 118 120 119 105 93 72 30 356 348 350 325 304 298 299 299 302 313 316 307 305 307 310 312 316 318
111 108 105 103 103 109 111 109 106 103 104 110 108 105 101 97 102 110 112 101 88 93 89 66 32 9 12 351 340 310 296 295 300 307 308 306 305 307 310 314 317 317 317 317
112 111 108 107 101 97 101 105 106 104 98 97 104 108 108 102 100 102 104 100 78 64 51 30 11 13 2 335 327 309 303 308 312 310 309 308 309 311 314 317 317 315 314 316
117 115 112 110 105 94 83 86 95 98 93 87 89 98 103 101 95 83 74 87 88 51 27 2 14 356 338 336 322 312 313 314 311 306 304 306 310 312 311 310 310 311 314 316
113 111 110 108 107 99 84 77 82 90 93 94 96 100 101 99 92 99 93 66 61 28 10 351 349 342 340 344 324 318 317 313 308 306 305 305 304 304 307 308 310 312 313 313
107 103 102 103 103 99 90 80 82 88 89 84 79 81 90 92 75 64 79 66 35 20 6 346 347 343 345 343 320 314 310 308 304 298 295 296 300 306 309 310 310 310 309 310
103 101 101 103 100 103 110 110 101 96 92 87 76 65 61 70 86 77 62 44 17 15 1 349 346 344 343 317 312 309 307 301 300 303 303 311 311 310 308 307 308 309 309 308
99 97 90 89 102 117 122 117 108 105 104 98 86 72 70 67 71 65 47 26 10 1 356 336 329 329 319 309 305 302 300 305 312 315 311 311 310 310 308 308 307 307 305 304
94 96 95 90 87 94 100 102 104 100 102 108 101 86 78 68 59 42 27 16 2 348 333 322 316 309 304 303 304 305 307 310 311 312 312 310 307 305 304 303 302 301 301 300
Height
1382 1379 1384 1390 1394 1395 1398 1397 1400 1394 1396 1399 1398 1401 1404 1409 1414 1420 1426 1432 1436 1440 1445 1449 1453 1456 1459 1461 1463 1465 1467 1468 1469 1469 1469 1467 1466 1464 1462 1459 1456 1452 1448 1443
1380 1376 1379 1386 1388 1391 1393 1395 1396 1395 1394 1389 1392 1396 1403 1408 1413 1418 1424 1429 1434 1438 1443 1446 1450 1453 1456 1458 1461 1463 1465 1466 1467 1466 1465 1464 1463 1461 1458 1455 1451 1447 1443 1438
1384 1379 1382 1390 1384 1386 1388 1388 1392 1397 1395 1391 1394 1397 1401 1406 1411 1416 1421 1426 1431 1436 1440 1444 1447 1450 1453 1456 1459 1461 1462 1463 1464 1463 1462 1461 1460 1457 1454 1451 1447 1442 1438 1433
1387 1388 1400 1382 1369 1374 1379 1381 1384 1387 1388 1390 1393 1398 1402 1405 1410 1415 1420 1424 1429 1434 1438 1442 1445 1448 1451 1454 1457 1459 1460 1461 1461 1461 1460 1458 1456 1454 1450 1446 1442 1438 1433 1428
1393 1391 1386 1375 1373 1372 1378 1380 1378 1382 1386 1391 1394 1399 1406 1408 1410 1414 1418 1423 1428 1432 1436 1439 1443 1446 1449 1453 1456 1457 1458 1459 1459 1458 1457 1455 1453 1450 1446 1442 1438 1433 1428 1423
1395 1396 1394 1382 1375 1372 1375 1382 1375 1376 1381 1389 1392 1404 1410 1410 1412 1415 1419 1423 1427 1431 1434 1438 1441 1445 1449 1452 1454 1456 1456 1456 1456 1455 1454 1452 1449 1446 1442 1438 1433 1428 1423 1418
1396 1396 1387 1381 1377 1376 1387 1387 1380 1377 1379 1385 1391 1397 1405 1409 1413 1417 1421 1424 1427 1430 1434 1437 1441 1445 1448 1451 1453 1454 1454 1454 1453 1452 1451 1449 1446 1442 1438 1433 1428 1423 1418 1413
1396 1398 1394 1381 1380 1382 1385 1383 1382 1381 1383 1388 1394 1399 1405 1411 1415 1419 1422 1425 1428 1431 1434 1438 1442 1445 1447 1450 1451 1452 1452 1451 1451 1450 1448 1445 1441 1437 1433 1428 1423 1418 1412 1407
1385 1387 1381 1379 1380 1382 1383 1384 1385 1386 1388 1392 1398 1404 1409 1414 1418 1421 1424 1426 1429 1432 1435 1439 1442 1445 1447 1448 1449 1449 1449 1449 1448 1447 1444 1441 1437 1433 1429 1424 1419 1414 1409 1403
1377 1379 1379 1380 1381 1382 1384 1386 1388 1391 1394 1397 1401 1407 1412 1415 1419 1422 1425 1428 1430 1433 1436 1439 1442 1444 1445 1447 1447 1447 1447 1446 1445 1443 1440 1437 1434 1430 1425 1420 1415 1410 1405 1400
1373 1378 1380 1381 1382 1383 1385 1388 1391 1395 1398 1401 1405 1410 1414 1417 1420 1423 1426 1428 1431 1433 1436 1439 1441 1443 1444 1445 1445 1445 1445 1443 1442 1439 1436 1433 1430 1426 1421 1417 1414 1409 1404 1399
1370 1370 1374 1378 1381 1383 1386 1390 1393 1397 1402 1406 1409 1412 1415 1418 1421 1424 1426 1428 1431 1433 1436 1438 1440 1441 1443 1443 1443 1443 1442 1440 1438 1436 1433 1429 1424 1420 1417 1414 1410 1407 1402 1398
1365 1367 1370 1375 1380 1384 1387 1392 1396 1400 1403 1407 1411 1414 1416 1419 1421 1424 1426 1428 1430 1433 1435 1437 1439 1440 1441 1442 1441 1440 1439 1437 1435 1432 1429 1425 1420 1415 1410 1407 1405 1401 1397 1393
1365 1368 1374 1378 1382 1386 1389 1394 1398 1402 1406 1409 1412 1415 1417 1419 1421 1423 1426 1428 1430 1433 1435 1436 1438 1439 1439 1439 1439 1438 1437 1434 1432 1428 1425 1421 1417 1413 1408 1403 1398 1394 1391 1387
1367 1368 1372 1378 1382 1387 1391 1395 1399 1403 1407 1410 1413 1415 1417 1419 1421 1423 1426 1428 1430 1432 1434 1435 1436 1437 1437 1437 1437 1435 1434 1431 1428 1425 1421 1418 1413 1410 1406 1401 1396 1390 1385 1380
1366 1370 1373 1378 1382 1388 1392 1396 1400 1404 1408 1411 1414 1416 1418 1420 1421 1423 1426 1428 1430 1431 1433 1434 1435 1435 1436 1435 1434 1433 1430 1428 1425 1421 1417 1414 1410 1406 1402 1398 1393 1388 1382 1377
1364 1370 1374 1379 1384 1389 1393 1397 1401 1405 1409 1412 1414 1416 1418 1420 1422 1424 1426 1428 1429 1431 1432 1433 1434 1434 1434 1433 1431 1429 1427 1424 1421 1417 1414 1410 1406 1403 1399 1394 1390 1385 1380 1375
1364 1367 1371 1377 1383 1389 1394 1399 1403 1407 1410 1412 1415 1417 1418 1420 1422 1424 1426 1428 1429 1431 1432 1432 1433 1432 1431 1430 1428 1426 1423 1420 1417 1413 1410 1407 1403 1400 1396 1391 1386 1381 1375 1370
1364 1369 1375 1381 1386 1390 1395 1400 1404 1407 1410 1413 1415 1417 1419 1420 1422 1424 1426 1427 1429 1430 1430 1431 1431 1430 1428 1427 1424 1422 1419 1416 1412 1409 1406 1403 1399 1395 1392 1387 1382 1377 1371 1366
1367 1371 1377 1383 1389 1393 1397 1401 1405 1408 1411 1413 1415 1417 1419 1420 1422 1424 1425 1427 1428 1429 1429 1429 1428 1427 1425 1423 1421 1418 1415 1412 1409 1406 1402 1399 1395 1391 1387 1383 1378 1372 1367 1362
1369 1374 1380 1386 1391 1396 1399 1403 1406 1409 1411 1413 1415 1417 1419 1421 1422 1424 1425 1426 1427 1428 1428 1427 1426 1424 1422 1420 1417 1415 1411 1408 1405 1402 1398 1395 1391 1387 1382 1378 1373 1368 1363 1358
1373 1378 1384 1388 1393 1397 1401 1404 1407 1410 1412 1414 1416 1418 1419 1421 1422 1423 1424 1426 1426 1426 1426 1425 1423 1421 1419 1416 1414 1411 1408 1405 1401 1398 1394 1390 1386 1382 1377 1373 1368 1364 1359 1355
1377 1382 1387 1391 1395 1399 1403 1406 1408 1411 1413 1414 1416 1417 1419 1420 1421 1423 1424 1425 1425 1424 1423 1422 1420 1418 1416 1413 1410 1407 1404 1401 1397 1394 1390 1386 1382 1377 1372 1368 1364 1359 1355 1350
1381 1385 1390 1394 1397 1401 1404 1407 1409 1411 1413 1414 1416 1417 1419 1420 1421 1423 1423 1424 1423 1422 1421 1419 1417 1415 1412 1409 1406 1403 1400 1396 1393 1389 1385 1381 1377 1372 1368 1363 1359 1354 1350 1346
1384 1388 1392 1396 1399 1402 1405 1407 1409 1411 1413 1414 1416 1418 1419 1420 1422 1422 1422 1422 1421 1420 1418 1416 1414 1411 1409 1406 1402 1399 1396 1392 1388 1384 1380 1376 1372 1367 1363 1359 1354 1350 1346 1342
1386 1390 1394 1397 1400 1403 1405 1407 1409 1411 1413 1414 1416 1418 1419 1420 1421 1421 1421 1420 1419 1417 1415 1413 1411 1408 1405 1402 1398 1395 1391 1387 1383 1379 1375 1371 1366 1362 1358 1354 1350 1346 1342 1339
1388 1391 1395 1397 1400 1403 1405 1407 1409 1411 1413 1415 1417 1418 1419 1420 1420 1420 1419 1418 1416 1414 1412 1410 1407 1404 1401 1398 1394 1391 1387 1383 1379 1374 1370 1366 1362 1358 1354 1350 1346 1342 1339 1336